[[{"header":{"parameterUnit":"m.s-1","parameterCategory":1,"la1":30.2991,"la2":30.254,"lo1":-89.0895,"lo2":-89.0444,"dy":0.0017,"dx":0.0017,"nx":28,"ny":28,"refTime":"2023-10-11T09:00:00:Z","depth":0,"parameterNumber":2,"parameterNumberName":"U-component_of_WINDS"},"data":[0,0,0,0,0,0,0,0,0,0,0,0,0,0,0,0,0,0,0,0,0,0,0,0,0,0,0,0,0,0,0,0,0,0,0,0,0,0,0,0,0,0,0,0,0,0,0,0,0,0,0,0,0,0,0,0,0,0,-3.8016,-3.8016,0,-3.8094,-3.8095,-3.8096,-3.8053,-3.8051,-3.8048,-3.8046,-3.8126,-3.813,-3.8134,0,0,0,0,0,0,0,0,0,0,0,0,0,-3.7828,-3.7832,-3.8015,-3.8016,-3.8017,-3.8094,-3.8095,-3.8096,-3.8053,-3.8051,-3.8048,-3.8045,-3.8125,-3.813,-3.8135,0,0,0,0,0,0,0,0,0,0,0,0,0,-3.7908,-3.7833,-3.8015,-3.8005,-3.8005,-3.8094,-3.8095,-3.8096,-3.8054,-3.805,-3.8047,-3.8044,-3.8123,-3.8129,-3.8135,-3.8238,0,0,-3.8154,-3.8157,0,0,0,0,0,0,0,0,-3.7904,-3.7915,-3.8006,-3.8006,-3.8006,-3.806,-3.8058,-3.8144,-3.8055,-3.8035,-3.8046,-3.8043,-3.8107,-3.8114,-3.8136,-3.8241,-3.8245,-3.8155,-3.8158,-3.8161,-3.8163,0,0,0,0,0,0,0,-3.7898,-3.7912,-3.8046,-3.8007,-3.8007,-3.7997,-3.8005,-3.8074,-3.8088,-3.8037,-3.8034,-3.8044,-3.8106,-3.813,-3.8137,-3.8246,-3.8155,-3.816,-3.8164,-3.8166,-3.844,-3.8443,0,0,0,0,0,0,-3.7893,-3.7907,-3.8044,-3.8049,-3.7946,-3.8003,-3.8011,-3.8046,-3.8087,-3.809,-3.8046,-3.8041,-3.8121,-3.813,-3.814,-3.8263,-3.8161,-3.8167,-3.817,-3.8437,-3.8441,-3.8445,0,0,0,0,0,0,-3.789,-3.7906,-3.8041,-3.7977,-3.7994,-3.8009,-3.8049,-3.8049,-3.8073,-3.8095,-3.8097,-3.8068,-3.8119,-3.8131,-3.8214,-3.8265,-3.817,-3.8175,-3.8432,-3.8438,-3.8443,-3.851,0,0,0,0,0,0,-3.7884,-3.7905,-3.7944,-3.7978,-3.7997,-3.8114,-3.8052,-3.8053,-3.8084,-3.8078,-3.8115,-3.8119,-3.8117,-3.8205,-3.822,-3.8272,-3.818,-3.8428,-3.8435,-3.8441,-3.8503,-3.8517,-3.8529,0,0,0,0,0,-3.7878,-3.796,-3.7946,-3.7963,-3.8047,-3.8117,-3.8127,-3.8124,-3.8088,-3.8128,-3.8142,-3.8117,-3.8257,-3.8214,-3.823,-3.8285,-3.8425,-3.8433,-3.8441,-3.8498,-3.8514,-3.8528,0,0,0,0,0,0,-3.7931,-3.7964,-3.795,-3.8045,-3.8078,-3.8109,-3.8159,-3.8142,-3.8186,-3.8179,-3.8173,-3.8182,-3.8268,-3.8285,-3.8236,-3.8387,-3.8335,-3.8347,-3.8373,-3.8389,-3.8401,-3.8396,-3.8185,0,0,0,0,0,-3.7953,-3.8008,-3.8034,-3.8116,-3.8133,-3.8143,-3.8174,-3.8169,-3.8203,-3.8217,-3.8237,-3.8271,-3.8322,-3.8356,-3.8405,-3.8505,-3.8513,-3.8551,-3.8564,-3.8574,-3.8585,-3.8639,-3.8657,-3.8471,-3.8471,-3.8471,0,0,-3.8001,-3.8026,-3.8061,-3.8127,-3.8152,-3.8209,-3.8156,-3.8217,-3.8259,-3.8226,-3.8306,-3.8321,-3.8359,-3.8451,-3.8492,-3.8467,-3.8638,-3.8584,-3.8592,-3.8597,-3.8649,-3.8667,-3.8683,-3.8477,-3.8476,-3.8475,0,0,-3.8117,-3.8141,-3.8212,-3.8238,-3.8278,-3.8284,-3.8301,-3.8335,-3.8344,-3.8424,-3.84,-3.845,-3.8538,-3.8566,-3.8592,-3.8719,-3.8699,-3.8735,-3.8802,-3.8855,-3.887,-3.8883,-3.8929,-3.8945,-3.8745,-3.8745,-3.8745,0,-3.8171,-3.8255,-3.825,-3.8315,-3.8345,-3.8317,-3.8389,-3.8415,-3.8468,-3.8489,-3.846,-3.8572,-3.8595,-3.8694,-3.8725,-3.8746,-3.8766,-3.8731,-3.8868,-3.8881,-3.8893,-3.8937,-3.8954,-3.8749,-3.8749,-3.8749,-3.8748,0,-3.832,-3.8379,-3.8432,-3.8484,-3.852,-3.8588,-3.8593,-3.863,-3.8621,-3.8631,-3.8712,-3.8739,-3.8793,-3.8816,-3.8808,-3.8914,-3.8897,-3.8868,-3.8817,-3.8915,-3.8956,-3.8973,-3.8755,-3.8754,-3.8753,-3.8752,0,0,-3.8472,-3.8521,-3.854,-3.8564,-3.8605,-3.8651,-3.8717,-3.877,-3.8802,-3.8839,-3.8895,-3.8971,-3.8944,-3.8974,-3.8969,-3.9016,-3.9115,-3.8981,-3.8982,-3.9006,-3.9234,-3.9256,-3.9275,-3.9102,-3.9105,-3.9107,-3.9231,0,-3.8591,-3.8707,-3.8705,-3.8813,-3.8868,-3.8843,-3.8901,-3.8932,-3.8943,-3.899,-3.9002,-3.9056,-3.9017,-3.9034,-3.908,-3.9094,-3.9161,-3.9085,-3.9154,-3.9157,-3.9146,-3.9297,-3.932,-3.9435,-3.9247,-3.925,-3.9251,0,-3.8745,-3.8788,-3.8902,-3.8936,-3.8959,-3.9011,-3.9059,-3.9105,-3.914,-3.9145,-3.9178,-3.9166,-3.9233,-3.9179,-3.9272,-3.922,-3.9248,-3.926,-3.9264,-3.9271,-3.921,-3.9308,-3.9472,-3.9489,-3.9276,-3.9274,-3.9273,0,-3.8845,-3.8931,-3.9011,-3.9032,-3.9073,-3.911,-3.9129,-3.9161,-3.9193,-3.9235,-3.9256,-3.9306,-3.9333,-3.9372,-3.9373,-3.9334,-3.9468,-3.9414,-3.9473,-3.9474,-3.9503,-3.9501,-3.9674,-3.952,-3.952,-3.952,-3.9519,0,-3.8979,-3.9049,-3.9056,-3.9105,-3.9184,-3.9181,-3.9258,-3.9274,-3.9302,-3.9354,-3.9335,-3.9383,-3.9382,-3.9432,-3.9433,-3.9511,-3.9523,-3.9528,-3.9528,-3.9531,-3.953,-3.9549,-3.9542,-3.9524,-3.9523,-3.9522,-3.9522,0,-3.9104,-3.9111,-3.9196,-3.9228,-3.9238,-3.9295,-3.9322,-3.9369,-3.9377,-3.9443,-3.9458,-3.9472,-3.9529,-3.9534,-3.96,-3.9602,-3.9695,-3.9686,-3.9684,-3.9682,-3.9742,-3.9737,-3.9934,-3.996,-3.9788,-3.979,-3.9791,0,-3.9189,-3.9243,-3.9281,-3.9314,-3.9335,-3.9389,-3.9422,-3.942,-3.9455,-3.95,-3.9541,-3.9597,-3.9641,-3.9734,-3.975,-3.98,-3.9792,-3.9858,-3.98,-3.9801,-3.9794,-3.9791,-3.9797,-3.987,-3.9871,-3.9873,-3.9874,0,-3.9339,-3.934,-3.9389,-3.9439,-3.9479,-3.9518,-3.9554,-3.9583,-3.9586,-3.9626,-3.9684,-3.9719,-3.9787,-3.9842,-3.9892,-3.9911,-3.9894,-3.9892,-3.9909,-3.9912,-3.9909,-3.9912,-3.9715,-3.9888,-3.9887,-3.9886,-3.9885,-3.9884,-3.9447,-3.9495,-3.9529,-3.9583,-3.9611,-3.9646,-3.9691,-3.9706,-3.9755,-3.981,-3.9806,-3.9871,-3.9905,-3.997,-3.9993,-4.0044,-4.0022,-4.0046,-4.0052,-4.0058,-4.0065,-3.9901,-4.0053,-4.0052,-4.0052,-4.0052,-4.0051,0,-3.9597,-3.9618,-3.9669,-3.9721,-3.9764,-3.9743,-3.9783,-3.982,-3.9878,-3.9911,-3.9955,-4.0023,-4.0076,-4.0097,-4.0149,-4.0186,-4.0179,-4.02,-4.0197,-4.0202,-4.0081,-4.0062,-4.0204,-4.0204,-4.0204,-4.0204,-4.0204,-4.0204,-3.9681,-3.9759,-3.9765,-3.9857,-3.9877,-3.9941,-3.9965,-3.9997,-4.0024,-4.01,-4.0145,-4.0158,-4.0186,-4.024,-4.0289,-4.0293,-4.0314,-4.0338,-4.0339,-4.0226,-4.0211,-4.0196,-4.0178,-4.0342,-4.0343,-4.0456,-4.0457,-4.0458]},{"header":{"parameterUnit":"m.s-1","parameterCategory":1,"la1":30.2991,"la2":30.254,"lo1":-89.0895,"lo2":-89.0444,"dy":0.0017,"dx":0.0017,"nx":28,"ny":28,"refTime":"2023-10-11T09:00:00:Z","depth":0,"parameterNumber":3,"parameterNumberName":"V-component_of_WINDS"},"data":[0,0,0,0,0,0,0,0,0,0,0,0,0,0,0,0,0,0,0,0,0,0,0,0,0,0,0,0,0,0,0,0,0,0,0,0,0,0,0,0,0,0,0,0,0,0,0,0,0,0,0,0,0,0,0,0,0,0,-4.4741,-4.4741,0,-4.4757,-4.4757,-4.4757,-4.4708,-4.4707,-4.4705,-4.4704,-4.4718,-4.4719,-4.4721,0,0,0,0,0,0,0,0,0,0,0,0,0,-4.4665,-4.4667,-4.4741,-4.4741,-4.4742,-4.4757,-4.4757,-4.4757,-4.4709,-4.4707,-4.4705,-4.4703,-4.4717,-4.4719,-4.4721,0,0,0,0,0,0,0,0,0,0,0,0,0,-4.4692,-4.4668,-4.4741,-4.4719,-4.4717,-4.4757,-4.4757,-4.4758,-4.4709,-4.4707,-4.4704,-4.4702,-4.4717,-4.4719,-4.4722,-4.4783,0,0,-4.473,-4.4731,0,0,0,0,0,0,0,0,-4.469,-4.4694,-4.4722,-4.4721,-4.4719,-4.4728,-4.4736,-4.4766,-4.4709,-4.4712,-4.4704,-4.4701,-4.4723,-4.4725,-4.4733,-4.4783,-4.4784,-4.473,-4.4732,-4.4733,-4.4733,0,0,0,0,0,0,0,-4.4688,-4.4693,-4.4747,-4.4723,-4.472,-4.4707,-4.4709,-4.4741,-4.473,-4.4712,-4.4708,-4.4711,-4.4722,-4.473,-4.4733,-4.4784,-4.473,-4.4732,-4.4734,-4.4735,-4.4885,-4.4887,0,0,0,0,0,0,-4.469,-4.4692,-4.4747,-4.4748,-4.4699,-4.4711,-4.4712,-4.4728,-4.4729,-4.4727,-4.4713,-4.4708,-4.4727,-4.473,-4.4733,-4.4804,-4.4733,-4.4735,-4.4737,-4.4883,-4.4886,-4.4888,0,0,0,0,0,0,-4.4688,-4.4695,-4.4746,-4.4719,-4.4725,-4.4714,-4.4732,-4.4729,-4.4738,-4.473,-4.4728,-4.4724,-4.4725,-4.4729,-4.4771,-4.4804,-4.4736,-4.4739,-4.488,-4.4884,-4.4887,-4.4948,0,0,0,0,0,0,-4.4686,-4.4695,-4.4719,-4.472,-4.4726,-4.4785,-4.4734,-4.4731,-4.4743,-4.4737,-4.474,-4.4738,-4.4724,-4.4767,-4.4773,-4.4807,-4.4741,-4.4877,-4.4882,-4.4886,-4.4943,-4.4953,-4.4962,0,0,0,0,0,-4.4684,-4.4735,-4.472,-4.4727,-4.4756,-4.4787,-4.479,-4.4773,-4.4746,-4.4769,-4.4764,-4.4738,-4.48,-4.4772,-4.4778,-4.4813,-4.4875,-4.488,-4.4886,-4.4938,-4.4951,-4.4962,0,0,0,0,0,0,-4.4737,-4.4735,-4.4718,-4.4771,-4.478,-4.4778,-4.4807,-4.4787,-4.4803,-4.4797,-4.4775,-4.4776,-4.4821,-4.4821,-4.479,-4.4872,-4.4832,-4.4839,-4.487,-4.4882,-4.4891,-4.489,-4.4743,0,0,0,0,0,-4.4755,-4.4781,-4.4777,-4.4824,-4.4829,-4.4818,-4.483,-4.4817,-4.4824,-4.4827,-4.4825,-4.4833,-4.4854,-4.4868,-4.4887,-4.4943,-4.4942,-4.4969,-4.4979,-4.4987,-4.4993,-4.5022,-4.5034,-4.4906,-4.4906,-4.4906,0,0,-4.4792,-4.4794,-4.4811,-4.4835,-4.484,-4.4866,-4.4821,-4.4851,-4.487,-4.4831,-4.4871,-4.487,-4.4876,-4.4925,-4.4947,-4.4927,-4.5028,-4.4994,-4.5,-4.5002,-4.5029,-4.5041,-4.5052,-4.491,-4.4909,-4.4909,0,0,-4.4873,-4.4877,-4.4917,-4.4923,-4.4931,-4.4923,-4.4933,-4.4935,-4.4933,-4.4972,-4.4943,-4.4965,-4.5002,-4.5008,-4.5016,-4.5099,-4.5076,-4.5106,-4.5156,-4.5184,-4.5195,-4.5203,-4.5233,-4.5244,-4.5112,-4.5113,-4.5113,0,-4.4918,-4.4958,-4.494,-4.4972,-4.4983,-4.495,-4.4989,-4.4995,-4.5009,-4.5017,-4.4994,-4.504,-4.5042,-4.5092,-4.5112,-4.512,-4.5129,-4.5106,-4.5195,-4.5203,-4.5211,-4.5239,-4.525,-4.5116,-4.5116,-4.5115,-4.5115,0,-4.5012,-4.504,-4.5071,-4.5086,-4.51,-4.5136,-4.5122,-4.5139,-4.5124,-4.5118,-4.5158,-4.516,-4.5178,-4.5189,-4.5174,-4.5237,-4.5224,-4.5199,-4.5158,-4.5227,-4.5253,-4.5264,-4.5121,-4.512,-4.5119,-4.5118,0,0,-4.5127,-4.5132,-4.5143,-4.5149,-4.5156,-4.5177,-4.5211,-4.523,-4.5244,-4.5255,-4.5282,-4.5314,-4.529,-4.5299,-4.5285,-4.531,-4.5376,-4.5282,-4.5281,-4.5299,-4.5444,-4.5463,-4.5476,-4.5361,-4.5363,-4.5364,-4.5444,0,-4.5206,-4.5265,-4.525,-4.5308,-4.5334,-4.5303,-4.5332,-4.5339,-4.5334,-4.5354,-4.5349,-4.5372,-4.5339,-4.5345,-4.5368,-4.5363,-4.5405,-4.5357,-4.5385,-4.5387,-4.5384,-4.5489,-4.5509,-4.5584,-4.5454,-4.5455,-4.5456,0,-4.5307,-4.5323,-4.5384,-4.5386,-4.5396,-4.5423,-4.5439,-4.5459,-4.5466,-4.5461,-4.5471,-4.5452,-4.5484,-4.5444,-4.5488,-4.5456,-4.5467,-4.5466,-4.5468,-4.547,-4.5426,-4.5494,-4.5608,-4.5619,-4.5472,-4.5471,-4.547,0,-4.5384,-4.542,-4.5461,-4.5468,-4.5472,-4.5491,-4.5494,-4.5498,-4.5511,-4.5524,-4.5532,-4.5549,-4.5558,-4.5572,-4.5557,-4.5529,-4.5603,-4.5562,-4.5599,-4.56,-4.5616,-4.5615,-4.5733,-4.5624,-4.5623,-4.5623,-4.5623,0,-4.5475,-4.5513,-4.5496,-4.5522,-4.5564,-4.5545,-4.5587,-4.5586,-4.559,-4.5614,-4.5588,-4.5611,-4.559,-4.5611,-4.56,-4.5638,-4.5642,-4.5638,-4.5635,-4.5641,-4.5641,-4.5647,-4.5641,-4.5626,-4.5626,-4.5625,-4.5624,0,-4.5568,-4.5558,-4.5601,-4.5601,-4.5602,-4.5633,-4.5633,-4.5656,-4.565,-4.568,-4.5686,-4.5676,-4.5699,-4.5686,-4.571,-4.5702,-4.5752,-4.5741,-4.575,-4.5747,-4.5785,-4.5781,-4.591,-4.5926,-4.5807,-4.5808,-4.5809,0,-4.5626,-4.5655,-4.5659,-4.5674,-4.5678,-4.5702,-4.5714,-4.5697,-4.5711,-4.5721,-4.5743,-4.5764,-4.578,-4.5818,-4.5812,-4.583,-4.5819,-4.5864,-4.5822,-4.5827,-4.582,-4.5818,-4.5821,-4.5872,-4.5873,-4.5874,-4.5875,0,-4.5731,-4.5724,-4.5744,-4.5762,-4.5778,-4.5791,-4.5802,-4.5815,-4.5798,-4.5815,-4.5839,-4.5851,-4.5876,-4.5897,-4.5912,-4.5913,-4.5891,-4.5889,-4.5898,-4.5904,-4.5908,-4.5906,-4.5772,-4.5886,-4.5885,-4.5884,-4.5883,-4.5883,-4.5808,-4.5832,-4.5839,-4.5861,-4.5868,-4.5879,-4.59,-4.5897,-4.5917,-4.5936,-4.5924,-4.5952,-4.5957,-4.5976,-4.598,-4.6001,-4.5983,-4.5997,-4.6,-4.6004,-4.6009,-4.5905,-4.6004,-4.6003,-4.6003,-4.6003,-4.6003,0,-4.5911,-4.5914,-4.5935,-4.5951,-4.5969,-4.5948,-4.5958,-4.5974,-4.5999,-4.6007,-4.6023,-4.605,-4.607,-4.6066,-4.6085,-4.6102,-4.6093,-4.6107,-4.6106,-4.6106,-4.6024,-4.6014,-4.6115,-4.6115,-4.6115,-4.6115,-4.6115,-4.6115,-4.5966,-4.6006,-4.6001,-4.6043,-4.6045,-4.6073,-4.6081,-4.6091,-4.6097,-4.6128,-4.6145,-4.6143,-4.6145,-4.6164,-4.6181,-4.6179,-4.6187,-4.6205,-4.62,-4.6123,-4.6112,-4.6102,-4.6092,-4.6207,-4.6207,-4.628,-4.6281,-4.6281]}]]